Kelso-Longview, WA
on Sunday, December 30, 2012

Sunday
Previous Day Next Day
Daily Summary
 ActualAverage (KSPB)Record (KSPB)
Temperature
Mean Temperature °F °F  
Max Temperature 44°F °F 54°F (1998)
Min Temperature 28°F °F 23°F (2010)
Degree Days
Heating Degree Days 29    
Month to date heating degree days  
Since 1 July heating degree days  
Cooling Degree Days 0    
Month to date cooling degree days  
Year to date cooling degree days  
Moisture
Dew Point 30°F   
Average Humidity 81    
Maximum Humidity 93    
Minimum Humidity 57    
Precipitation
Precipitation 0.00 in in 1.32 in (2002)
Month to date precipitation  
Year to date precipitation  
Wind
Wind Speed 0 mph   
Max Wind Speed 4 mph   
Max Gust Speed mph   
Visibility 9 miles   
Events     

Key: T is trace of precipitation, MM is missing value
Source: NWS Daily Summary
Time(PST)TemperatureDew PointHumidity Pressure Visibility Wind DirectionWind SpeedGust SpeedPrecipitationEvents Conditions
12:15 AM 37.4°F 33.8°F 87% 30.24 in 10.0 miles Calm Calm - N/A   Overcast
12:35 AM 37.4°F 33.8°F 87% 30.24 in 9.0 miles Calm Calm - N/A   Overcast
12:55 AM 37.4°F 33.8°F 87% 30.24 in 8.0 miles Calm Calm - N/A   Overcast
1:15 AM 37.4°F 33.8°F 87% 30.24 in 7.0 miles Calm Calm - N/A   Overcast
1:35 AM 37.4°F 33.8°F 87% 30.24 in 7.0 miles Calm Calm - N/A   Overcast
1:55 AM 37.4°F 33.8°F 87% 30.25 in 6.0 miles Calm Calm - N/A   Overcast
2:15 AM 37.4°F 33.8°F 87% 30.26 in 7.0 miles Calm Calm - N/A   Overcast
2:35 AM 37.4°F 33.8°F 87% 30.26 in 7.0 miles Calm Calm - N/A   Overcast
2:55 AM 37.4°F 33.8°F 87% 30.26 in 8.0 miles Calm Calm - N/A   Overcast
3:15 AM 37.4°F 33.8°F 87% 30.26 in 8.0 miles Calm Calm - N/A   Overcast
3:35 AM 35.6°F 33.8°F 93% 30.26 in 8.0 miles Calm Calm - N/A   Overcast
3:55 AM 35.6°F 32.0°F 87% 30.27 in 8.0 miles ESE 3.5 mph - N/A   Scattered Clouds
4:15 AM 33.8°F 30.2°F 87% 30.27 in 5.0 miles Calm Calm - N/A   Clear
4:35 AM 33.8°F 30.2°F 87% 30.28 in 5.0 miles Calm Calm - N/A   Scattered Clouds
4:55 AM 33.8°F 30.2°F 87% 30.27 in 7.0 miles Calm Calm - N/A   Overcast
5:15 AM 33.8°F 30.2°F 87% 30.28 in 8.0 miles Calm Calm - N/A   Overcast
5:35 AM 33.8°F 30.2°F 87% 30.28 in 8.0 miles Calm Calm - N/A   Mostly Cloudy
5:55 AM 33.8°F 30.2°F 87% 30.28 in 10.0 miles Calm Calm - N/A   Overcast
6:15 AM 33.8°F 30.2°F 87% 30.28 in 9.0 miles Calm Calm - N/A   Overcast
6:35 AM 33.8°F 32.0°F 93% 30.29 in 10.0 miles Calm Calm - N/A   Overcast
6:55 AM 35.6°F 32.0°F 87% 30.29 in 10.0 miles Calm Calm - N/A   Overcast
7:15 AM 33.8°F 30.2°F 87% 30.29 in 10.0 miles Calm Calm - N/A   Mostly Cloudy
7:35 AM 33.8°F 30.2°F 87% 30.29 in 8.0 miles Calm Calm - N/A   Partly Cloudy
7:55 AM 32.0°F 30.2°F 93% 30.30 in 10.0 miles Calm Calm - N/A   Clear
8:15 AM 32.0°F 28.4°F 87% 30.30 in 9.0 miles Calm Calm - N/A   Clear
8:35 AM 32.0°F 28.4°F 87% 30.31 in 10.0 miles Calm Calm - N/A   Clear
8:55 AM 32.0°F 30.2°F 93% 30.31 in 10.0 miles Calm Calm - N/A   Clear
9:15 AM 33.8°F 30.2°F 87% 30.32 in 10.0 miles Calm Calm - N/A   Clear
9:35 AM 35.6°F 30.2°F 81% 30.32 in 10.0 miles Calm Calm - N/A   Clear
9:55 AM 35.6°F 32.0°F 87% 30.32 in 10.0 miles Calm Calm - N/A   Clear
10:15 AM 37.4°F 32.0°F 81% 30.33 in 10.0 miles Calm Calm - N/A   Clear
10:35 AM 37.4°F 32.0°F 81% 30.33 in 10.0 miles Calm Calm - N/A   Clear
10:55 AM 37.4°F 30.2°F 75% 30.33 in 10.0 miles Calm Calm - N/A   Clear
11:15 AM 39.2°F 32.0°F 75% 30.32 in 10.0 miles Calm Calm - N/A   Clear
11:35 AM 39.2°F 30.2°F 70% 30.32 in 10.0 miles Calm Calm - N/A   Clear
11:55 AM 39.2°F 30.2°F 70% 30.31 in 10.0 miles Calm Calm - N/A   Clear
12:15 PM 41.0°F 30.2°F 65% 30.31 in 10.0 miles Calm Calm - N/A   Clear
12:35 PM 41.0°F 30.2°F 65% 30.30 in 10.0 miles Calm Calm - N/A   Clear
12:55 PM 42.8°F 30.2°F 61% 30.29 in 10.0 miles Calm Calm - N/A   Clear
1:15 PM 42.8°F 30.2°F 61% 30.29 in 10.0 miles Calm Calm - N/A   Clear
1:35 PM 42.8°F 30.2°F 61% 30.29 in 10.0 miles Calm Calm - N/A   Clear
1:55 PM 42.8°F 30.2°F 61% 30.29 in 10.0 miles Calm Calm - N/A   Clear
2:15 PM 42.8°F 30.2°F 61% 30.29 in 10.0 miles Calm Calm - N/A   Clear
2:35 PM 42.8°F 30.2°F 61% 30.29 in 10.0 miles Calm Calm - N/A   Clear
2:55 PM 42.8°F 30.2°F 61% 30.29 in 10.0 miles Calm Calm - N/A   Clear
3:15 PM 44.6°F 30.2°F 57% 30.29 in 10.0 miles Calm Calm - N/A   Clear
3:35 PM 44.6°F 30.2°F 57% 30.29 in 10.0 miles Calm Calm - N/A   Clear
3:55 PM 42.8°F 30.2°F 61% 30.29 in 10.0 miles Calm Calm - N/A   Clear
4:15 PM 42.8°F 30.2°F 61% 30.28 in 10.0 miles Calm Calm - N/A   Clear
4:35 PM 39.2°F 30.2°F 70% 30.28 in 10.0 miles Calm Calm - N/A   Clear
4:55 PM 37.4°F 30.2°F 75% 30.28 in 10.0 miles Calm Calm - N/A   Clear
5:15 PM 35.6°F 30.2°F 81% 30.28 in 10.0 miles Calm Calm - N/A   Clear
5:35 PM 35.6°F 30.2°F 81% 30.27 in 10.0 miles Calm Calm - N/A   Clear
5:55 PM 33.8°F 28.4°F 81% 30.27 in 10.0 miles Calm Calm - N/A   Clear
6:15 PM 33.8°F 30.2°F 87% 30.27 in 10.0 miles Calm Calm - N/A   Clear
6:35 PM 33.8°F 28.4°F 81% 30.27 in 10.0 miles Calm Calm - N/A   Clear
6:55 PM 33.8°F 28.4°F 81% 30.27 in 10.0 miles Calm Calm - N/A   Clear
7:15 PM 32.0°F 28.4°F 87% 30.28 in 10.0 miles Calm Calm - N/A   Clear
7:35 PM 30.2°F 28.4°F 93% 30.28 in 10.0 miles Calm Calm - N/A   Clear
7:55 PM 30.2°F 26.6°F 86% 30.28 in 10.0 miles Calm Calm - N/A   Clear
8:15 PM 30.2°F 26.6°F 86% 30.28 in 10.0 miles East 3.5 mph - N/A   Clear
8:35 PM 30.2°F 28.4°F 93% 30.27 in 10.0 miles Calm Calm - N/A   Clear
8:55 PM 28.4°F 24.8°F 86% 30.28 in 10.0 miles NW 3.5 mph - N/A   Clear
9:15 PM 30.2°F 26.6°F 86% 30.28 in 10.0 miles Calm Calm - N/A   Clear
9:35 PM 30.2°F 26.6°F 86% 30.28 in 10.0 miles Calm Calm - N/A   Clear
9:55 PM 28.4°F 26.6°F 93% 30.29 in 10.0 miles Calm Calm - N/A   Clear
10:15 PM 28.4°F 26.6°F 93% 30.30 in 10.0 miles Calm Calm - N/A   Clear
10:35 PM 28.4°F 24.8°F 86% 30.30 in 9.0 miles Calm Calm - N/A   Clear
10:55 PM 28.4°F 24.8°F 86% 30.30 in 10.0 miles Calm Calm - N/A   Clear
11:15 PM 28.4°F 26.6°F 93% 30.31 in 10.0 miles Calm Calm - N/A   Scattered Clouds
11:35 PM 28.4°F 24.8°F 86% 30.31 in 10.0 miles Calm Calm - N/A   Partly Cloudy
11:55 PM 28.4°F 26.6°F 93% 30.31 in 10.0 miles Calm Calm - N/A   Clear
Moon Phase
Dec. 30 Jan. 04 Jan. 11 Jan. 18 Jan. 26
Sunrise:07:53 AM (PST) Moon Rise:07:21 PM (PST)12/30
Sunset:04:35 PM (PST) Moon Set:08:57 AM (PST)12/30

Copyright © 2014 The Weather Underground, Inc.